User: anonymous
Location: Caltech
(34.1382°N, 118.1253°W)
Time: 02:25:32
(UTC-07:00)
Language:

Cosmos 2084 - Orbit

View from above orbital plane
View from above orbital plane
View from above satellite
View from above satellite

Ground track
Ground track

The orbit data is extracted from the following two-line orbital elements,

1 20663U 90055A   14235.06765971  .00000493  00000-0  70027-4 0  1967
2 20663 062.7970 057.9729 0038574 309.6832 050.0860 14.89209490306382
Epoch (UTC): 23 August 2014 01:37:25
Eccentricity: 0.0038574
inclination: 62.7970°
perigee height: 573 km
apogee height: 627 km
right ascension of ascending node: 57.9729°
argument of perigee: 309.6832°
revolutions per day: 14.89209490
mean anomaly at epoch: 50.0860°
orbit number at epoch: 30638

The dashed part of the orbit path shows where the satellite is in the earth's shadow,  

DLR